Home   Weather   San Francisco   Past weeks
Flag for USA

Past Weather in San Francisco, California, USA — Yesterday and Last 2 Weeks

Now
61 °F

Passing clouds.


Feels Like: 61 °F
Forecast: 68 / 56 °F
Wind: 13 mph from Northwest

Location: San Francisco International Airport

Current Time: Jul 23, 2019 at 10:22:32 pm

Latest Report: Jul 23, 2019 at 9:56 pm


Visibility: 10 mi

Pressure: 30.01 "Hg

Humidity: 75%

Dew Point: 53 °F

Location of San FranciscoLocation

Past Weather in San Francisco — Graph

°F

San Francisco Temperature Yesterday

Maximum temperature yesterday: 74 °F (at 2:56 pm)
Minimum temperature yesterday: 57 °F (at 3:56 am)
Average temperature yesterday: 63 °F

High & Low Weather Summary for the Past Weeks

 TemperatureHumidityPressure
High78 °F (Jul 17, 1:56 pm)93% (Jul 9, 10:56 pm)30.12 "Hg (Jul 9, 10:56 pm)
Low55 °F (Jul 12, 5:56 am)44% (Jul 15, 11:56 am)29.86 "Hg (Jul 19, 4:56 am)
Average64 °F72%29.96 "Hg
* Reported Jul 8 8:56 pm — Jul 23 8:56 pm, San Francisco. Weather by CustomWeather, © 2019

Note: Actual official high and low records may vary slightly from our data, if they occured in-between our weather recording intervals... More about our weather records

Advertising

San Francisco Weather History for the Previous 24 Hours

Scroll right to see more
 ConditionsComfort  
Time TempWeatherWind HumidityBarometerVisibility
8:56 pm
Tue, Jul 23
62 °FPassing clouds.10 mph73%29.99 "Hg10 mi
7:56 pm64 °FPassing clouds.10 mph68%29.99 "Hg10 mi
6:56 pm65 °FPassing clouds.12 mph68%30.00 "Hg10 mi
5:56 pm67 °FPassing clouds.14 mph61%30.00 "Hg10 mi
4:56 pm70 °FPassing clouds.17 mph53%30.01 "Hg10 mi
3:56 pm70 °FPassing clouds.17 mph53%30.02 "Hg10 mi
2:56 pm68 °FPassing clouds.25 mph59%30.02 "Hg10 mi
1:56 pm69 °FPassing clouds.20 mph57%30.03 "Hg10 mi
12:56 pm68 °FPassing clouds.18 mph59%30.03 "Hg10 mi
11:56 am67 °FPassing clouds.18 mph59%30.03 "Hg10 mi
10:56 am66 °FPassing clouds.17 mph63%30.03 "Hg10 mi
9:56 am64 °FPassing clouds.15 mph68%30.03 "Hg10 mi
8:56 am62 °FScattered clouds.14 mph73%30.02 "Hg10 mi
7:56 am60 °FScattered clouds.14 mph78%30.02 "Hg10 mi
6:56 am59 °FPassing clouds.10 mph81%30.01 "Hg10 mi
5:56 am59 °FPassing clouds.12 mph81%29.99 "Hg10 mi
4:56 am59 °FPassing clouds.9 mph78%29.99 "Hg10 mi
3:56 am58 °FPassing clouds.9 mph84%29.98 "Hg10 mi
2:56 am58 °FPassing clouds.10 mph84%29.98 "Hg10 mi
1:56 am59 °FPassing clouds.8 mph81%29.98 "Hg10 mi
12:56 am59 °FPassing clouds.12 mph78%29.98 "Hg10 mi
11:56 pm
Mon, Jul 22
58 °FPassing clouds.13 mph81%29.97 "Hg10 mi
10:56 pm59 °FPassing clouds.10 mph78%29.98 "Hg10 mi
Weather by CustomWeather, © 2019

See weather overview